Location: Duncanville
(32.6518°N, 96.9083°W)
Time: 11:21:01
(UTC+00:00)

Cosmos 2263 Rocket - Pass Details

Date: 11 February 2026
Orbit: 821 x 848 km, 71.0° (Epoch: 8 March)

Event Time Altitude Azimuth Distance (km) Brightness Sun altitude
Rises 12:37:36 0° 337° (NNW) 3,406 5.0 -8.3°
Reaches altitude 10° 12:40:03 10° 335° (NNW) 2,465 4.3 -7.8°
Maximum altitude 12:45:42 73° 252° (WSW) 875 2.2 -6.7°
Drops below altitude 10° 12:51:16 10° 168° (SSE) 2,434 5.0 -5.5°
Sets 12:53:41 0° 166° (SSE) 3,361 5.7 -5.0°
